NOZ1792 ENGM-LEAL

Flight info

Callsign NOZ1792
Flight time 3h 27m
Altitude 34000
Route ENGM/19R VIPPA DCT KUGAL DCT JUIST DCT GISEB DCT CIV DCT MEDIL/N0450F350 DCT KOVIN DCT DUCRA DCT RESMI DCT DEKOD DCT DISAK DCT DIRMO DCT GUERE DCT EVPOK DCT AGN DCT ANETO DCT POSSY DCT XIMPE DCT RIMES DCT SAURA DCT TATOS DCT PLANA DCT VLC
Aircraft B738/M-SDE2E3FGHIRWXY/LB1

Departure

Time 2026-05-06 19:18
Airport Oslo-Gardermoen International Airport (ENGM)

Arrival

Time 2026-05-06 22:45
Airport Alicante-Elche Miguel Hernández Airport (LEAL)
Time Latitude Longitude Altitude Speed Heading
2026-05-06 19:12 60.21561 11.09410 683 ft 0 kts 284°
2026-05-06 19:15 60.21563 11.09396 683 ft 3 kts 284°
2026-05-06 19:15 60.21571 11.09336 679 ft 6 kts 285°
2026-05-06 19:15 60.21576 11.09235 683 ft 8 kts 256°
2026-05-06 19:15 60.21535 11.09131 681 ft 11 kts 210°
2026-05-06 19:16 60.21501 11.09108 683 ft 0 kts 198°
2026-05-06 19:17 60.21365 11.09028 681 ft 59 kts 197°
2026-05-06 19:17 60.20707 11.08649 676 ft 135 kts 196°
2026-05-06 19:17 60.19601 11.08000 779 ft 191 kts 197°
2026-05-06 19:18 60.18264 11.07234 1496 ft 205 kts 197°
2026-05-06 19:18 60.16838 11.06152 1920 ft 237 kts 216°
2026-05-06 19:18 60.15838 11.03465 2487 ft 248 kts 248°
2026-05-06 19:18 60.15192 11.00280 3295 ft 251 kts 248°
2026-05-06 19:19 60.14489 10.97044 4104 ft 254 kts 246°
2026-05-06 19:19 60.13766 10.93790 4921 ft 257 kts 246°
2026-05-06 19:19 60.13012 10.90467 5742 ft 259 kts 246°
2026-05-06 19:19 60.12257 10.87175 6530 ft 262 kts 245°
2026-05-06 19:20 60.11413 10.83921 7299 ft 265 kts 231°
2026-05-06 19:20 60.09926 10.81794 8078 ft 266 kts 204°
2026-05-06 19:20 60.08211 10.80404 8864 ft 268 kts 203°
2026-05-06 19:20 60.06470 10.79018 9671 ft 269 kts 203°
2026-05-06 19:21 60.04750 10.77640 10374 ft 271 kts 204°
2026-05-06 19:21 60.02969 10.76201 11110 ft 273 kts 205°
2026-05-06 19:21 60.01208 10.74765 11829 ft 274 kts 206°
2026-05-06 19:21 59.99463 10.73332 12525 ft 276 kts 207°
2026-05-06 19:22 59.97684 10.71865 13274 ft 277 kts 207°
2026-05-06 19:22 59.95892 10.70384 13922 ft 281 kts 208°
2026-05-06 19:22 59.94078 10.68882 14579 ft 282 kts 208°
2026-05-06 19:22 59.92243 10.67364 15279 ft 282 kts 208°
2026-05-06 19:23 59.90445 10.65877 15912 ft 284 kts 209°
2026-05-06 19:23 59.88615 10.64363 16542 ft 286 kts 209°
2026-05-06 19:23 59.86767 10.62835 17191 ft 288 kts 209°
2026-05-06 19:23 59.84914 10.61305 17837 ft 289 kts 210°
2026-05-06 19:24 59.83048 10.59766 18410 ft 292 kts 209°
2026-05-06 19:24 59.81160 10.58210 18950 ft 294 kts 210°
2026-05-06 19:24 59.79268 10.56654 19493 ft 296 kts 210°
2026-05-06 19:24 59.77358 10.55084 20026 ft 298 kts 210°
2026-05-06 19:25 59.75431 10.53501 20490 ft 304 kts 210°
2026-05-06 19:25 59.73422 10.51844 20572 ft 320 kts 209°
2026-05-06 19:25 59.71325 10.50119 20686 ft 335 kts 209°
2026-05-06 19:25 59.69119 10.48313 20806 ft 349 kts 208°
2026-05-06 19:26 59.66848 10.46465 21084 ft 357 kts 208°
2026-05-06 19:26 59.64539 10.44588 21591 ft 360 kts 208°
2026-05-06 19:26 59.62227 10.42713 22137 ft 361 kts 208°
2026-05-06 19:26 59.59882 10.40826 22642 ft 364 kts 207°
2026-05-06 19:27 59.57434 10.39384 23083 ft 374 kts 198°
2026-05-06 19:27 59.54845 10.38481 23530 ft 379 kts 197°
2026-05-06 19:27 59.52243 10.37636 23927 ft 381 kts 196°
2026-05-06 19:27 59.49629 10.36797 24366 ft 381 kts 196°
2026-05-06 19:28 59.47010 10.35946 24804 ft 382 kts 197°
2026-05-06 19:28 59.44386 10.35082 25174 ft 383 kts 197°
2026-05-06 19:28 59.41751 10.34205 25554 ft 385 kts 197°
2026-05-06 19:28 59.39104 10.33320 25944 ft 386 kts 197°
2026-05-06 19:29 59.36452 10.32432 26343 ft 387 kts 197°
2026-05-06 19:29 59.33786 10.31540 26721 ft 389 kts 197°
2026-05-06 19:29 59.31119 10.30648 27076 ft 391 kts 197°
2026-05-06 19:29 59.28430 10.29751 27418 ft 392 kts 197°
2026-05-06 19:30 59.25736 10.28854 27754 ft 394 kts 197°
2026-05-06 19:30 59.23028 10.27954 28110 ft 395 kts 197°
2026-05-06 19:30 59.20314 10.27053 28442 ft 397 kts 197°
2026-05-06 19:30 59.17583 10.26149 28753 ft 399 kts 196°
2026-05-06 19:31 59.14815 10.25516 29051 ft 405 kts 192°
2026-05-06 19:31 59.12025 10.25141 29359 ft 407 kts 191°
2026-05-06 19:31 59.06309 10.24476 29932 ft 410 kts 191°
2026-05-06 19:32 59.03463 10.24119 30173 ft 412 kts 191°
2026-05-06 19:32 59.00635 10.23747 30369 ft 414 kts 191°
2026-05-06 19:32 58.97755 10.23361 30545 ft 416 kts 191°
2026-05-06 19:32 58.94890 10.22757 30725 ft 413 kts 197°
2026-05-06 19:33 58.92117 10.21426 30916 ft 407 kts 205°
2026-05-06 19:33 58.89480 10.19477 31113 ft 407 kts 207°
2026-05-06 19:33 58.86828 10.17477 31283 ft 409 kts 207°
2026-05-06 19:33 58.84171 10.15480 31458 ft 411 kts 206°
2026-05-06 19:34 58.81497 10.13486 31634 ft 413 kts 206°
2026-05-06 19:34 58.78808 10.11493 31820 ft 414 kts 206°
2026-05-06 19:34 58.76112 10.09506 31990 ft 416 kts 206°
2026-05-06 19:34 58.73403 10.07517 32161 ft 418 kts 206°
2026-05-06 19:35 58.70686 10.05530 32313 ft 419 kts 206°
2026-05-06 19:35 58.67956 10.03537 32462 ft 420 kts 206°
2026-05-06 19:35 58.65218 10.01543 32604 ft 421 kts 206°
2026-05-06 19:35 58.62474 9.99547 32737 ft 422 kts 206°
2026-05-06 19:36 58.59720 9.97548 32852 ft 424 kts 206°
2026-05-06 19:36 58.56959 9.95548 32959 ft 425 kts 206°
2026-05-06 19:36 58.54191 9.93544 33060 ft 426 kts 206°
2026-05-06 19:36 58.51417 9.91540 33166 ft 426 kts 206°
2026-05-06 19:37 58.45862 9.87538 33329 ft 428 kts 205°
2026-05-06 19:37 58.41188 9.84181 33470 ft 429 kts 205°
2026-05-06 19:38 58.37486 9.81528 33625 ft 428 kts 205°
2026-05-06 19:38 58.34699 9.79536 33725 ft 428 kts 205°
2026-05-06 19:38 58.31910 9.77546 33831 ft 428 kts 205°
2026-05-06 19:38 58.29120 9.75557 33931 ft 428 kts 205°
2026-05-06 19:39 58.23531 9.71583 34024 ft 430 kts 205°
2026-05-06 19:39 58.17921 9.67607 34105 ft 431 kts 205°
2026-05-06 19:40 58.12298 9.63636 34159 ft 431 kts 205°
2026-05-06 19:40 58.09525 9.61688 34094 ft 418 kts 205°
2026-05-06 19:40 58.06824 9.59797 33998 ft 413 kts 205°
2026-05-06 19:41 58.01388 9.55976 33982 ft 419 kts 205°
2026-05-06 19:41 57.95952 9.52172 33965 ft 416 kts 205°
2026-05-06 19:42 57.90542 9.48402 33971 ft 413 kts 205°
2026-05-06 19:42 57.85161 9.44664 33973 ft 412 kts 205°
2026-05-06 19:43 57.79789 9.40943 33981 ft 411 kts 205°
2026-05-06 19:43 57.74426 9.37239 33983 ft 411 kts 205°
2026-05-06 19:44 57.69041 9.33531 33983 ft 413 kts 205°
2026-05-06 19:44 57.63640 9.29825 33986 ft 414 kts 205°
2026-05-06 19:45 57.58224 9.26121 33983 ft 416 kts 204°
2026-05-06 19:45 57.52771 9.22404 33985 ft 418 kts 204°
2026-05-06 19:46 57.47313 9.18696 33987 ft 419 kts 204°
2026-05-06 19:46 57.41831 9.14984 33986 ft 419 kts 204°
2026-05-06 19:47 57.36349 9.11284 33991 ft 419 kts 204°
2026-05-06 19:47 57.30862 9.07591 33991 ft 419 kts 204°
2026-05-06 19:48 57.25379 9.03913 33986 ft 419 kts 204°
2026-05-06 19:48 57.19896 9.00247 33990 ft 419 kts 204°
2026-05-06 19:49 57.14419 8.96596 33995 ft 419 kts 204°
2026-05-06 19:49 57.08939 8.92954 33998 ft 419 kts 204°
2026-05-06 19:50 57.03458 8.89323 34001 ft 419 kts 204°
2026-05-06 19:50 56.97977 8.85704 33993 ft 419 kts 204°
2026-05-06 19:51 56.92489 8.82091 34003 ft 419 kts 204°
2026-05-06 19:51 56.87009 8.78495 34004 ft 419 kts 204°
2026-05-06 19:52 56.81512 8.74898 34009 ft 420 kts 204°
2026-05-06 19:52 56.76010 8.71310 33995 ft 420 kts 204°
2026-05-06 19:53 56.70539 8.67753 33998 ft 421 kts 203°
2026-05-06 19:53 56.65023 8.64178 34002 ft 421 kts 203°
2026-05-06 19:54 56.60398 8.61189 34005 ft 421 kts 203°
2026-05-06 19:54 56.54876 8.57631 34005 ft 422 kts 203°
2026-05-06 19:55 56.49339 8.54074 34006 ft 422 kts 203°
2026-05-06 19:55 56.43802 8.50528 34001 ft 423 kts 203°
2026-05-06 19:56 56.38257 8.46987 34005 ft 423 kts 203°
2026-05-06 19:56 56.32693 8.43446 34005 ft 424 kts 203°
2026-05-06 19:57 56.27126 8.39914 34004 ft 424 kts 203°
2026-05-06 19:57 56.21550 8.36387 34004 ft 425 kts 203°
2026-05-06 19:58 56.15973 8.32870 34006 ft 425 kts 202°
2026-05-06 19:58 56.10378 8.29353 34000 ft 426 kts 202°
2026-05-06 19:59 56.04774 8.25841 34007 ft 427 kts 202°
2026-05-06 19:59 55.99171 8.22340 34002 ft 427 kts 202°
2026-05-06 20:00 55.93561 8.18846 34003 ft 427 kts 202°
2026-05-06 20:00 55.87934 8.15352 33998 ft 428 kts 202°
2026-05-06 20:01 55.82310 8.11870 34001 ft 428 kts 202°
2026-05-06 20:01 55.76674 8.08392 33999 ft 429 kts 202°
2026-05-06 20:02 55.71032 8.04920 33994 ft 430 kts 202°
2026-05-06 20:02 55.65415 8.01475 33996 ft 430 kts 202°
2026-05-06 20:03 55.59719 7.97992 33990 ft 431 kts 202°
2026-05-06 20:03 55.54103 7.94568 33996 ft 431 kts 202°
2026-05-06 20:04 55.48374 7.91086 33995 ft 432 kts 202°
2026-05-06 20:04 55.42719 7.87660 33994 ft 433 kts 202°
2026-05-06 20:05 55.37022 7.84217 33996 ft 433 kts 201°
2026-05-06 20:05 55.31315 7.80781 33991 ft 434 kts 201°
2026-05-06 20:06 55.25575 7.77334 33991 ft 434 kts 201°
2026-05-06 20:06 55.19891 7.73931 33992 ft 434 kts 201°
2026-05-06 20:07 55.14171 7.70517 33986 ft 435 kts 201°
2026-05-06 20:07 55.08445 7.67109 33987 ft 435 kts 201°
2026-05-06 20:08 55.02710 7.63706 33986 ft 436 kts 201°
2026-05-06 20:08 54.96942 7.60402 33981 ft 437 kts 199°
2026-05-06 20:09 54.91102 7.57486 33982 ft 437 kts 198°
2026-05-06 20:09 54.85234 7.54622 33978 ft 438 kts 198°
2026-05-06 20:10 54.79372 7.51722 33983 ft 438 kts 199°
2026-05-06 20:10 54.73511 7.48801 33981 ft 439 kts 199°
2026-05-06 20:11 54.67645 7.45876 33980 ft 439 kts 199°
2026-05-06 20:11 54.61767 7.42954 33977 ft 439 kts 198°
2026-05-06 20:12 54.55892 7.40044 33977 ft 440 kts 198°
2026-05-06 20:12 54.49999 7.37134 33978 ft 440 kts 198°
2026-05-06 20:13 54.44108 7.34233 33979 ft 441 kts 198°
2026-05-06 20:13 54.38207 7.31337 33976 ft 441 kts 198°
2026-05-06 20:14 54.32307 7.28449 33974 ft 441 kts 198°
2026-05-06 20:14 54.26397 7.25566 33976 ft 442 kts 198°
2026-05-06 20:15 54.20488 7.22691 33974 ft 442 kts 198°
2026-05-06 20:15 54.14574 7.19822 33971 ft 442 kts 198°
2026-05-06 20:16 54.08651 7.16958 33971 ft 442 kts 198°
2026-05-06 20:16 54.02733 7.14104 33966 ft 442 kts 198°
2026-05-06 20:17 53.96807 7.11255 33965 ft 442 kts 198°
2026-05-06 20:17 53.90890 7.08419 33965 ft 442 kts 198°
2026-05-06 20:18 53.84962 7.05586 33962 ft 442 kts 198°
2026-05-06 20:18 53.79037 7.02762 33964 ft 442 kts 198°
2026-05-06 20:19 53.73146 6.99963 33958 ft 442 kts 198°
2026-05-06 20:19 53.67184 6.97137 33959 ft 442 kts 198°
2026-05-06 20:20 53.61265 6.94340 33959 ft 442 kts 198°
2026-05-06 20:20 53.55532 6.90857 33959 ft 439 kts 209°
2026-05-06 20:21 53.50498 6.85140 33965 ft 437 kts 217°
2026-05-06 20:21 53.45563 6.79056 33961 ft 438 kts 217°
2026-05-06 20:22 53.40632 6.73042 33957 ft 439 kts 217°
2026-05-06 20:22 53.35709 6.67097 33958 ft 439 kts 217°
2026-05-06 20:23 53.30738 6.61127 33964 ft 441 kts 217°
2026-05-06 20:23 53.25744 6.55148 33964 ft 442 kts 217°
2026-05-06 20:24 53.20743 6.49178 33965 ft 443 kts 217°
2026-05-06 20:24 53.15725 6.43204 33964 ft 443 kts 217°
2026-05-06 20:25 53.10703 6.37244 33963 ft 444 kts 217°
2026-05-06 20:25 53.05665 6.31281 33967 ft 444 kts 216°
2026-05-06 20:26 53.00630 6.25339 33959 ft 444 kts 216°
2026-05-06 20:26 52.95585 6.19403 33952 ft 444 kts 216°
2026-05-06 20:27 52.90540 6.13485 33949 ft 444 kts 216°
2026-05-06 20:27 52.85491 6.07579 33945 ft 445 kts 216°
2026-05-06 20:28 52.80432 6.01678 33943 ft 445 kts 216°
2026-05-06 20:28 52.75372 5.95793 33940 ft 445 kts 216°
2026-05-06 20:29 52.70305 5.89917 33946 ft 445 kts 216°
2026-05-06 20:29 52.65240 5.84061 33950 ft 445 kts 216°
2026-05-06 20:30 52.57625 5.75287 33964 ft 445 kts 216°
2026-05-06 20:31 52.52545 5.69456 33963 ft 445 kts 216°
2026-05-06 20:31 52.47464 5.63639 33962 ft 446 kts 216°
2026-05-06 20:32 52.42381 5.57838 33969 ft 446 kts 216°
2026-05-06 20:32 52.37284 5.52036 33970 ft 446 kts 216°
2026-05-06 20:33 52.32185 5.46250 33960 ft 446 kts 216°
2026-05-06 20:33 52.27087 5.40481 33961 ft 446 kts 216°
2026-05-06 20:34 52.21975 5.34712 33950 ft 447 kts 216°
2026-05-06 20:34 52.16854 5.28949 33944 ft 447 kts 216°
2026-05-06 20:35 52.11723 5.23191 33940 ft 448 kts 216°
2026-05-06 20:35 52.06592 5.17450 33943 ft 448 kts 216°
2026-05-06 20:36 52.01450 5.11713 33947 ft 449 kts 216°
2026-05-06 20:36 51.96294 5.05974 33944 ft 449 kts 216°
2026-05-06 20:37 51.92003 5.01210 33951 ft 450 kts 216°
2026-05-06 20:37 51.86701 4.95833 33952 ft 451 kts 211°
2026-05-06 20:38 51.81198 4.90949 33954 ft 451 kts 210°
2026-05-06 20:38 51.75673 4.86101 33949 ft 451 kts 210°
2026-05-06 20:39 51.70173 4.81225 33945 ft 452 kts 210°
2026-05-06 20:39 51.64676 4.76329 33947 ft 452 kts 210°
2026-05-06 20:40 51.59172 4.71431 33956 ft 452 kts 210°
2026-05-06 20:40 51.53668 4.66548 33961 ft 452 kts 210°
2026-05-06 20:41 51.48162 4.61678 33961 ft 452 kts 210°
2026-05-06 20:41 51.42638 4.56806 33964 ft 452 kts 210°
2026-05-06 20:42 51.37122 4.51955 33965 ft 453 kts 210°
2026-05-06 20:42 51.31598 4.47111 33965 ft 453 kts 210°
2026-05-06 20:43 51.26078 4.42283 33969 ft 453 kts 210°
2026-05-06 20:43 51.20530 4.37444 33968 ft 454 kts 210°
2026-05-06 20:44 51.14991 4.32626 33968 ft 454 kts 210°
2026-05-06 20:44 51.09443 4.27814 33968 ft 455 kts 210°
2026-05-06 20:45 51.03889 4.23010 33965 ft 455 kts 210°
2026-05-06 20:45 50.98320 4.18206 33966 ft 455 kts 209°
2026-05-06 20:46 50.92753 4.13416 33963 ft 455 kts 209°
2026-05-06 20:46 50.87220 4.08669 33959 ft 456 kts 209°
2026-05-06 20:47 50.81600 4.03861 33958 ft 456 kts 209°
2026-05-06 20:47 50.76060 3.99134 33955 ft 456 kts 209°
2026-05-06 20:48 50.70469 3.94375 33949 ft 456 kts 209°
2026-05-06 20:48 50.64893 3.89642 33947 ft 456 kts 209°
2026-05-06 20:49 50.59299 3.84906 33954 ft 456 kts 209°
2026-05-06 20:49 50.53591 3.80529 33953 ft 457 kts 204°
2026-05-06 20:50 50.47736 3.76637 33952 ft 457 kts 204°
2026-05-06 20:50 50.41875 3.72716 33958 ft 458 kts 204°
2026-05-06 20:51 50.36037 3.68749 33953 ft 458 kts 204°
2026-05-06 20:51 50.30184 3.64784 33954 ft 458 kts 204°
2026-05-06 20:52 50.24327 3.60830 33954 ft 459 kts 204°
2026-05-06 20:52 50.18464 3.56881 33953 ft 459 kts 204°
2026-05-06 20:53 50.12593 3.52937 33957 ft 460 kts 204°
2026-05-06 20:53 50.06706 3.48991 33959 ft 460 kts 204°
2026-05-06 20:54 50.00827 3.45061 33960 ft 460 kts 204°
2026-05-06 20:54 49.94986 3.41167 33958 ft 461 kts 204°
2026-05-06 20:55 49.89082 3.37241 33960 ft 461 kts 204°
2026-05-06 20:55 49.83189 3.33334 33955 ft 461 kts 204°
2026-05-06 20:56 49.77292 3.29434 33972 ft 461 kts 204°
2026-05-06 20:56 49.71388 3.25540 33960 ft 461 kts 204°
2026-05-06 20:57 49.65487 3.21657 33959 ft 461 kts 204°
2026-05-06 20:57 49.59589 3.17787 33978 ft 461 kts 204°
2026-05-06 20:58 49.53690 3.13924 33977 ft 461 kts 204°
2026-05-06 20:58 49.47837 3.09915 33951 ft 460 kts 210°
2026-05-06 20:59 49.42476 3.04566 33961 ft 459 kts 214°
2026-05-06 20:59 49.37184 2.99072 33964 ft 459 kts 214°
2026-05-06 21:00 49.31863 2.93630 33975 ft 460 kts 214°
2026-05-06 21:00 49.26527 2.88239 33974 ft 460 kts 214°
2026-05-06 21:01 49.23857 2.85552 33964 ft 460 kts 214°
2026-05-06 21:01 49.20875 2.82555 33979 ft 460 kts 214°
2026-05-06 21:02 49.15562 2.77225 33982 ft 460 kts 214°
2026-05-06 21:02 49.10177 2.71834 33978 ft 460 kts 214°
2026-05-06 21:03 49.04819 2.66483 33999 ft 460 kts 214°
2026-05-06 21:03 48.99460 2.61143 33997 ft 460 kts 214°
2026-05-06 21:04 48.94097 2.55817 33984 ft 461 kts 214°
2026-05-06 21:04 48.88765 2.50533 33990 ft 461 kts 214°
2026-05-06 21:05 48.83388 2.45213 33991 ft 461 kts 214°
2026-05-06 21:05 48.78005 2.39901 33993 ft 462 kts 214°
2026-05-06 21:06 48.72617 2.34597 33996 ft 462 kts 214°
2026-05-06 21:06 48.67224 2.29301 33988 ft 462 kts 214°
2026-05-06 21:07 48.61824 2.24012 33981 ft 462 kts 214°
2026-05-06 21:07 48.56228 2.19249 33990 ft 463 kts 202°
2026-05-06 21:08 48.49985 2.16791 33998 ft 465 kts 192°
2026-05-06 21:08 48.43653 2.14898 33986 ft 465 kts 192°
2026-05-06 21:09 48.37306 2.12897 33981 ft 465 kts 193°
2026-05-06 21:09 48.30971 2.10875 33967 ft 466 kts 190°
2026-05-06 21:10 48.24520 2.10604 33968 ft 467 kts 173°
2026-05-06 21:10 48.21279 2.10894 33962 ft 466 kts 184°
2026-05-06 21:10 48.18084 2.10185 33997 ft 464 kts 192°
2026-05-06 21:11 48.11763 2.08192 33984 ft 465 kts 193°
2026-05-06 21:11 48.05419 2.06256 33983 ft 465 kts 192°
2026-05-06 21:12 47.99054 2.04431 33985 ft 466 kts 191°
2026-05-06 21:12 47.92685 2.02658 33994 ft 466 kts 191°
2026-05-06 21:13 47.86305 2.00895 33997 ft 466 kts 191°
2026-05-06 21:13 47.79932 1.99134 33994 ft 466 kts 191°
2026-05-06 21:14 47.73547 1.97372 33986 ft 466 kts 191°
2026-05-06 21:14 47.67171 1.95615 33980 ft 467 kts 191°
2026-05-06 21:15 47.60779 1.93859 33983 ft 467 kts 191°
2026-05-06 21:15 47.54393 1.92108 33983 ft 467 kts 191°
2026-05-06 21:16 47.47998 1.90359 33982 ft 467 kts 191°
2026-05-06 21:16 47.41593 1.88612 33988 ft 468 kts 192°
2026-05-06 21:17 47.35239 1.86884 33989 ft 468 kts 191°
2026-05-06 21:17 47.28842 1.85147 33995 ft 468 kts 191°
2026-05-06 21:18 47.22379 1.83398 33990 ft 468 kts 191°
2026-05-06 21:18 47.16011 1.81678 33990 ft 469 kts 191°
2026-05-06 21:19 47.09599 1.79950 33986 ft 469 kts 191°
2026-05-06 21:19 47.03178 1.78224 33985 ft 469 kts 191°
2026-05-06 21:20 46.96720 1.76493 33991 ft 469 kts 192°
2026-05-06 21:20 46.90347 1.74789 33996 ft 469 kts 191°
2026-05-06 21:21 46.83940 1.73079 33991 ft 469 kts 191°
2026-05-06 21:21 46.77520 1.71370 33991 ft 468 kts 192°
2026-05-06 21:22 46.71109 1.69668 33989 ft 468 kts 192°
2026-05-06 21:22 46.64696 1.67970 33985 ft 468 kts 192°
2026-05-06 21:23 46.58284 1.66275 33981 ft 468 kts 192°
2026-05-06 21:23 46.52904 1.64857 33981 ft 468 kts 192°
2026-05-06 21:24 46.46539 1.63182 33976 ft 468 kts 192°
2026-05-06 21:24 46.40124 1.61499 33977 ft 468 kts 192°
2026-05-06 21:25 46.33718 1.59821 33981 ft 468 kts 192°
2026-05-06 21:25 46.27299 1.58145 33972 ft 468 kts 192°
2026-05-06 21:26 46.20892 1.56475 33974 ft 468 kts 192°
2026-05-06 21:26 46.14484 1.54809 33970 ft 468 kts 192°
2026-05-06 21:27 46.08085 1.53150 33963 ft 467 kts 192°
2026-05-06 21:27 46.01676 1.51492 33959 ft 467 kts 192°
2026-05-06 21:28 45.95279 1.49840 33963 ft 467 kts 192°
2026-05-06 21:28 45.88883 1.48193 33962 ft 467 kts 192°
2026-05-06 21:29 45.82498 1.46553 33965 ft 466 kts 192°
2026-05-06 21:29 45.76115 1.44916 33965 ft 466 kts 192°
2026-05-06 21:30 45.69733 1.43284 33964 ft 466 kts 192°
2026-05-06 21:30 45.63343 1.41653 33956 ft 466 kts 192°
2026-05-06 21:31 45.56966 1.40030 33958 ft 466 kts 192°
2026-05-06 21:31 45.50582 1.38408 33959 ft 466 kts 192°
2026-05-06 21:32 45.44217 1.36711 33960 ft 465 kts 194°
2026-05-06 21:32 45.34816 1.33590 33961 ft 464 kts 195°
2026-05-06 21:33 45.28528 1.31485 33959 ft 464 kts 195°
2026-05-06 21:33 45.22236 1.29428 33970 ft 464 kts 195°
2026-05-06 21:34 45.15932 1.27393 33984 ft 465 kts 195°
2026-05-06 21:34 45.09633 1.25366 33986 ft 464 kts 195°
2026-05-06 21:35 45.03340 1.23345 33985 ft 464 kts 195°
2026-05-06 21:35 44.97051 1.21328 33984 ft 464 kts 195°
2026-05-06 21:36 44.90747 1.19311 33980 ft 463 kts 195°
2026-05-06 21:36 44.84466 1.17306 33981 ft 463 kts 195°
2026-05-06 21:37 44.78185 1.15305 33982 ft 463 kts 195°
2026-05-06 21:37 44.71903 1.13308 33979 ft 463 kts 195°
2026-05-06 21:38 44.65632 1.11319 33989 ft 462 kts 195°
2026-05-06 21:38 44.59358 1.09334 33985 ft 462 kts 195°
2026-05-06 21:39 44.53086 1.07353 33989 ft 462 kts 195°
2026-05-06 21:39 44.46824 1.05381 33989 ft 461 kts 195°
2026-05-06 21:40 44.40558 1.03411 33996 ft 461 kts 195°
2026-05-06 21:40 44.34308 1.01450 33994 ft 460 kts 195°
2026-05-06 21:41 44.28064 0.99496 34007 ft 460 kts 195°
2026-05-06 21:41 44.21816 0.97545 34002 ft 459 kts 196°
2026-05-06 21:42 44.15592 0.95605 34009 ft 458 kts 196°
2026-05-06 21:42 44.09368 0.93669 34009 ft 458 kts 196°
2026-05-06 21:43 44.03158 0.91742 34014 ft 457 kts 196°
2026-05-06 21:43 43.96961 0.89823 34004 ft 456 kts 196°
2026-05-06 21:44 43.90763 0.87907 34010 ft 455 kts 196°
2026-05-06 21:44 43.84565 0.86086 34007 ft 456 kts 194°
2026-05-06 21:45 43.78336 0.84443 34014 ft 455 kts 194°
2026-05-06 21:45 43.72118 0.82817 34017 ft 454 kts 194°
2026-05-06 21:46 43.65922 0.81176 34014 ft 453 kts 194°
2026-05-06 21:46 43.59727 0.79526 34024 ft 452 kts 195°
2026-05-06 21:47 43.53552 0.77882 34022 ft 451 kts 195°
2026-05-06 21:47 43.47393 0.76246 34026 ft 451 kts 195°
2026-05-06 21:48 43.41242 0.74617 34024 ft 450 kts 195°
2026-05-06 21:48 43.35100 0.72993 34025 ft 449 kts 195°
2026-05-06 21:49 43.28979 0.71378 34029 ft 448 kts 195°
2026-05-06 21:49 43.22906 0.69779 34040 ft 447 kts 195°
2026-05-06 21:50 43.16809 0.68177 34035 ft 446 kts 195°
2026-05-06 21:50 43.10723 0.66581 34040 ft 445 kts 195°
2026-05-06 21:51 43.04634 0.64987 34052 ft 445 kts 195°
2026-05-06 21:51 42.98566 0.63402 34053 ft 445 kts 195°
2026-05-06 21:52 42.92485 0.61817 34036 ft 444 kts 195°
2026-05-06 21:52 42.86422 0.60239 34021 ft 443 kts 195°
2026-05-06 21:53 42.80392 0.58675 34031 ft 440 kts 195°
2026-05-06 21:53 42.74390 0.57119 34041 ft 438 kts 195°
2026-05-06 21:54 42.68457 0.55269 34030 ft 430 kts 204°
2026-05-06 21:54 42.63112 0.51955 33995 ft 419 kts 210°
2026-05-06 21:55 42.57858 0.48519 34013 ft 420 kts 210°
2026-05-06 21:55 42.52573 0.45109 34002 ft 421 kts 209°
2026-05-06 21:56 42.47279 0.41730 34003 ft 421 kts 209°
2026-05-06 21:56 42.41969 0.38353 33996 ft 422 kts 209°
2026-05-06 21:57 42.36656 0.34982 33982 ft 422 kts 209°
2026-05-06 21:57 42.31339 0.31613 33985 ft 422 kts 209°
2026-05-06 21:58 42.26025 0.28252 33986 ft 422 kts 209°
2026-05-06 21:58 42.20704 0.24892 33980 ft 422 kts 209°
2026-05-06 21:59 42.15395 0.21545 33977 ft 421 kts 209°
2026-05-06 21:59 42.10104 0.18217 33970 ft 420 kts 209°
2026-05-06 22:00 42.04611 0.15483 33967 ft 425 kts 197°
2026-05-06 22:00 41.98756 0.14481 33969 ft 428 kts 191°
2026-05-06 22:01 41.92844 0.13666 33970 ft 427 kts 191°
2026-05-06 22:01 41.86926 0.12815 33983 ft 429 kts 191°
2026-05-06 22:02 41.81112 0.11953 33968 ft 428 kts 191°
2026-05-06 22:02 41.75202 0.11071 33969 ft 427 kts 191°
2026-05-06 22:03 41.69294 0.10188 33964 ft 427 kts 191°
2026-05-06 22:03 41.63390 0.09308 33971 ft 426 kts 191°
2026-05-06 22:04 41.57518 0.08437 33847 ft 419 kts 191°
2026-05-06 22:04 41.54641 0.08013 33274 ft 416 kts 192°
2026-05-06 22:04 41.51808 0.07392 32977 ft 403 kts 196°
2026-05-06 22:05 41.49093 0.06641 33086 ft 397 kts 197°
2026-05-06 22:05 41.46383 0.05846 33154 ft 402 kts 198°
2026-05-06 22:05 41.40814 0.04204 33175 ft 417 kts 197°
2026-05-06 22:06 41.35063 0.02551 33179 ft 429 kts 197°
2026-05-06 22:06 41.29209 0.00905 33163 ft 429 kts 197°
2026-05-06 22:07 41.23427 -0.00703 33155 ft 419 kts 197°
2026-05-06 22:07 41.17714 -0.02296 33174 ft 420 kts 197°
2026-05-06 22:08 41.12950 -0.03627 33177 ft 421 kts 197°
2026-05-06 22:08 41.07218 -0.05225 33182 ft 422 kts 197°
2026-05-06 22:09 41.01462 -0.06824 33176 ft 423 kts 197°
2026-05-06 22:09 40.95702 -0.08422 33189 ft 423 kts 197°
2026-05-06 22:10 40.89940 -0.10017 33183 ft 423 kts 197°
2026-05-06 22:10 40.84184 -0.11608 33198 ft 422 kts 197°
2026-05-06 22:11 40.78442 -0.13193 33190 ft 422 kts 197°
2026-05-06 22:11 40.72708 -0.14772 33188 ft 420 kts 198°
2026-05-06 22:12 40.66988 -0.16344 33200 ft 419 kts 198°
2026-05-06 22:12 40.61293 -0.17907 33184 ft 417 kts 198°
2026-05-06 22:13 40.55615 -0.19463 33167 ft 416 kts 198°
2026-05-06 22:13 40.49962 -0.21010 33149 ft 414 kts 198°
2026-05-06 22:14 40.44323 -0.22550 33143 ft 414 kts 198°
2026-05-06 22:14 40.38685 -0.24087 33131 ft 413 kts 198°
2026-05-06 22:15 40.33063 -0.25617 33125 ft 413 kts 198°
2026-05-06 22:15 40.27441 -0.27145 33123 ft 412 kts 198°
2026-05-06 22:16 40.24665 -0.27895 32884 ft 405 kts 198°
2026-05-06 22:16 40.21917 -0.28638 32259 ft 404 kts 198°
2026-05-06 22:16 40.19148 -0.29390 31435 ft 408 kts 198°
2026-05-06 22:16 40.16344 -0.30155 30523 ft 416 kts 198°
2026-05-06 22:17 40.13486 -0.30933 29597 ft 421 kts 197°
2026-05-06 22:17 40.10614 -0.31711 28581 ft 425 kts 197°
2026-05-06 22:17 40.07697 -0.32499 27524 ft 429 kts 197°
2026-05-06 22:17 40.04826 -0.33267 27123 ft 411 kts 197°
2026-05-06 22:18 40.02093 -0.33990 26822 ft 393 kts 197°
2026-05-06 22:18 39.99415 -0.34707 25873 ft 396 kts 197°
2026-05-06 22:18 39.96709 -0.35440 25184 ft 398 kts 196°
2026-05-06 22:18 39.94006 -0.36171 24701 ft 395 kts 197°
2026-05-06 22:19 39.91327 -0.36891 24254 ft 391 kts 196°
2026-05-06 22:19 39.88672 -0.37606 23671 ft 391 kts 196°
2026-05-06 22:19 39.86045 -0.38311 23092 ft 389 kts 196°
2026-05-06 22:19 39.83404 -0.39019 22566 ft 386 kts 196°
2026-05-06 22:20 39.80750 -0.39729 22059 ft 382 kts 196°
2026-05-06 22:20 39.78157 -0.40422 21551 ft 380 kts 196°
2026-05-06 22:20 39.75612 -0.41103 21035 ft 377 kts 196°
2026-05-06 22:20 39.73052 -0.41788 20520 ft 375 kts 195°
2026-05-06 22:21 39.70501 -0.42469 20021 ft 373 kts 196°
2026-05-06 22:21 39.67975 -0.43143 19532 ft 371 kts 195°
2026-05-06 22:21 39.65420 -0.43824 19043 ft 369 kts 195°
2026-05-06 22:21 39.62941 -0.44485 18609 ft 366 kts 195°
2026-05-06 22:22 39.60466 -0.45143 18383 ft 358 kts 195°
2026-05-06 22:22 39.58070 -0.45778 18314 ft 345 kts 196°
2026-05-06 22:22 39.55769 -0.46389 18224 ft 333 kts 196°
2026-05-06 22:22 39.53534 -0.46983 18153 ft 322 kts 196°
2026-05-06 22:23 39.51385 -0.47554 18049 ft 312 kts 196°
2026-05-06 22:23 39.49260 -0.48121 17690 ft 310 kts 196°
2026-05-06 22:23 39.47167 -0.48744 17344 ft 308 kts 199°
2026-05-06 22:23 39.45104 -0.49465 17036 ft 306 kts 200°
2026-05-06 22:24 39.43056 -0.50211 16726 ft 306 kts 200°
2026-05-06 22:24 39.41009 -0.50960 16423 ft 306 kts 200°
2026-05-06 22:24 39.38965 -0.51704 16165 ft 304 kts 199°
2026-05-06 22:24 39.36931 -0.52439 15903 ft 302 kts 199°
2026-05-06 22:25 39.34910 -0.53167 15657 ft 301 kts 199°
2026-05-06 22:25 39.32898 -0.53882 15410 ft 300 kts 199°
2026-05-06 22:25 39.30879 -0.54558 15159 ft 299 kts 198°
2026-05-06 22:25 39.28864 -0.55217 14914 ft 299 kts 198°
2026-05-06 22:26 39.26849 -0.55873 14676 ft 302 kts 198°
2026-05-06 22:26 39.24718 -0.56573 14477 ft 328 kts 197°
2026-05-06 22:26 39.22464 -0.57314 14243 ft 338 kts 197°
2026-05-06 22:26 39.20181 -0.58060 14009 ft 339 kts 197°
2026-05-06 22:27 39.17899 -0.58804 13756 ft 337 kts 197°
2026-05-06 22:27 39.15631 -0.59544 13480 ft 336 kts 197°
2026-05-06 22:27 39.13365 -0.60284 13204 ft 335 kts 197°
2026-05-06 22:27 39.11119 -0.61018 12939 ft 333 kts 197°
2026-05-06 22:28 39.08875 -0.61751 12675 ft 332 kts 197°
2026-05-06 22:28 39.06638 -0.62483 12334 ft 332 kts 197°
2026-05-06 22:28 39.04432 -0.63204 11935 ft 322 kts 197°
2026-05-06 22:28 39.02281 -0.63905 11549 ft 316 kts 196°
2026-05-06 22:29 39.00153 -0.64601 11175 ft 315 kts 196°
2026-05-06 22:29 38.98033 -0.65293 10804 ft 313 kts 196°
2026-05-06 22:29 38.95924 -0.65982 10430 ft 312 kts 195°
2026-05-06 22:29 38.93831 -0.66664 10066 ft 307 kts 195°
2026-05-06 22:30 38.91771 -0.67335 9829 ft 301 kts 195°
2026-05-06 22:30 38.89780 -0.67983 9756 ft 290 kts 195°
2026-05-06 22:30 38.87850 -0.68611 9583 ft 283 kts 195°
2026-05-06 22:30 38.85942 -0.69231 9258 ft 282 kts 195°
2026-05-06 22:31 38.84043 -0.69849 8921 ft 282 kts 195°
2026-05-06 22:31 38.82139 -0.70469 8602 ft 281 kts 195°
2026-05-06 22:31 38.80244 -0.71085 8284 ft 281 kts 195°
2026-05-06 22:31 38.78355 -0.71698 7995 ft 279 kts 195°
2026-05-06 22:32 38.76511 -0.72296 7926 ft 268 kts 195°
2026-05-06 22:32 38.74728 -0.72873 7847 ft 259 kts 195°
2026-05-06 22:32 38.73014 -0.73428 7768 ft 250 kts 195°
2026-05-06 22:32 38.71362 -0.73963 7695 ft 240 kts 195°
2026-05-06 22:33 38.69775 -0.74477 7621 ft 231 kts 195°
2026-05-06 22:33 38.68242 -0.74973 7487 ft 224 kts 195°
2026-05-06 22:33 38.66738 -0.75460 7297 ft 221 kts 195°
2026-05-06 22:33 38.65284 -0.75930 7231 ft 211 kts 195°
2026-05-06 22:34 38.63877 -0.76385 7019 ft 207 kts 195°
2026-05-06 22:34 38.62483 -0.76836 6767 ft 207 kts 195°
2026-05-06 22:34 38.61083 -0.77289 6493 ft 208 kts 194°
2026-05-06 22:34 38.59681 -0.77741 6226 ft 207 kts 194°
2026-05-06 22:35 38.58287 -0.78192 5954 ft 207 kts 194°
2026-05-06 22:35 38.56899 -0.78640 5695 ft 206 kts 194°
2026-05-06 22:35 38.55536 -0.79079 5444 ft 204 kts 194°
2026-05-06 22:35 38.54156 -0.79524 5201 ft 204 kts 194°
2026-05-06 22:36 38.52784 -0.79966 4960 ft 203 kts 194°
2026-05-06 22:36 38.51414 -0.80407 4697 ft 203 kts 194°
2026-05-06 22:36 38.50049 -0.80847 4451 ft 202 kts 194°
2026-05-06 22:36 38.48690 -0.81285 4224 ft 201 kts 193°
2026-05-06 22:37 38.47336 -0.81720 4058 ft 201 kts 193°
2026-05-06 22:37 38.45973 -0.82158 4025 ft 203 kts 193°
2026-05-06 22:37 38.44600 -0.82600 4007 ft 203 kts 194°
2026-05-06 22:37 38.43236 -0.83038 3991 ft 201 kts 193°
2026-05-06 22:38 38.41885 -0.83473 3994 ft 200 kts 193°
2026-05-06 22:38 38.40526 -0.83909 4008 ft 203 kts 193°
2026-05-06 22:38 38.39143 -0.84353 4005 ft 206 kts 193°
2026-05-06 22:38 38.37755 -0.84798 3999 ft 205 kts 193°
2026-05-06 22:39 38.36383 -0.85238 4011 ft 200 kts 194°
2026-05-06 22:39 38.35038 -0.85669 4016 ft 200 kts 193°
2026-05-06 22:39 38.33660 -0.85775 3985 ft 200 kts 160°
2026-05-06 22:39 38.32648 -0.84722 3987 ft 183 kts 113°
2026-05-06 22:40 38.32299 -0.83272 4019 ft 162 kts 106°
2026-05-06 22:40 38.31974 -0.81906 3924 ft 162 kts 104°
2026-05-06 22:40 38.31715 -0.80556 3738 ft 152 kts 101°
2026-05-06 22:40 38.31506 -0.79256 3552 ft 148 kts 100°
2026-05-06 22:41 38.31131 -0.76683 3175 ft 148 kts 99°
2026-05-06 22:41 38.30949 -0.75399 2976 ft 147 kts 99°
2026-05-06 22:41 38.30769 -0.74120 2783 ft 147 kts 99°
2026-05-06 22:42 38.30589 -0.72842 2595 ft 147 kts 99°
2026-05-06 22:42 38.30410 -0.71560 2392 ft 147 kts 99°
2026-05-06 22:42 38.30232 -0.70287 2197 ft 146 kts 99°
2026-05-06 22:42 38.30056 -0.69030 2007 ft 146 kts 99°
2026-05-06 22:43 38.29875 -0.67741 1807 ft 146 kts 99°
2026-05-06 22:43 38.29700 -0.66486 1613 ft 146 kts 99°
2026-05-06 22:43 38.29523 -0.65218 1413 ft 145 kts 99°
2026-05-06 22:43 38.29348 -0.63962 1216 ft 144 kts 99°
2026-05-06 22:44 38.29174 -0.62710 1016 ft 143 kts 99°
2026-05-06 22:44 38.29001 -0.61471 829 ft 143 kts 98°
2026-05-06 22:44 38.28828 -0.60228 640 ft 143 kts 98°
2026-05-06 22:44 38.28656 -0.58992 434 ft 142 kts 98°
2026-05-06 22:45 38.28484 -0.57753 257 ft 142 kts 98°
2026-05-06 22:45 38.28314 -0.56532 119 ft 134 kts 98°
2026-05-06 22:45 38.28186 -0.55628 97 ft 61 kts 99°
2026-05-06 22:45 38.28155 -0.55360 88 ft 22 kts 101°
2026-05-06 22:46 38.28129 -0.55161 81 ft 23 kts 99°
2026-05-06 22:46 38.28136 -0.54963 72 ft 22 kts 82°
2026-05-06 22:46 38.28169 -0.54805 66 ft 12 kts 70°
2026-05-06 22:46 38.28185 -0.54750 63 ft 1 kts 69°
2026-05-06 22:47 38.28198 -0.54728 64 ft 5 kts 44°
2026-05-06 22:47 38.28237 -0.54722 63 ft 6 kts 334°
2026-05-06 22:47 38.28252 -0.54787 69 ft 12 kts 279°
2026-05-06 22:47 38.28272 -0.54937 68 ft 22 kts 279°
2026-05-06 22:48 38.28302 -0.55154 84 ft 25 kts 286°
2026-05-06 22:48 38.28399 -0.55142 84 ft 19 kts 62°
2026-05-06 22:48 38.28439 -0.54989 82 ft 16 kts 26°
2026-05-06 22:48 38.28544 -0.54963 86 ft 15 kts 10°
2026-05-06 22:49 38.28630 -0.54956 83 ft 7 kts 319°
2026-05-06 22:49 38.28639 -0.54976 85 ft 0 kts 285°
2026-05-06 22:49 38.28639 -0.54977 85 ft 0 kts 285°
2026-05-06 22:50 38.28640 -0.54987 84 ft 10 kts 279°
2026-05-06 22:50 38.28645 -0.55027 87 ft 0 kts 279°